Location: Noyers
(47.2770°N, 1.4032°E)
Time: 23:33:58
(UTC+00:00)

NOSS 3-3 (A) - Pass Details

Date: 15 May 2026
Orbit: 691 x 1518 km, 63.4° (Epoch: 11 January)

Event Time Altitude Azimuth Distance (km) Brightness Sun altitude
Rises 19:55:42 0° 207° (SSW) 3,110 6.6 -5.3°
Reaches altitude 10° 19:57:55 10° 204° (SSW) 2,244 5.8 -5.6°
Maximum altitude 20:02:56 64° 124° (SE) 903 3.6 -6.3°
Drops below altitude 10° 20:08:55 10° 44° (NE) 2,666 6.2 -7.1°
Sets 20:11:45 0° 42° (NE) 3,746 7.0 -7.5°
